Regional Weather Roundup
Issued by NWS

Home | Current Version | Previous Version | Text Only | Print | Product List | Glossary On
Versions: 1 2 3 4 5 6 7 8 9 10 11 12 13 14 15 16 17 18 19 20 21 22 23 24 25 26 27 28 29 30 31 32 33 34 35 36 37 38 39 40 41 42 43 44 45 46 47 48 49 50
000
ASUS43 KMKX 222111
RWRWI

WISCONSIN REGIONAL WEATHER ROUNDUP
NATIONAL WEATHER SERVICE MILWAUKEE/SULLIVAN WI
400 PM CDT MON MAY 22 2017

NOTE: "FAIR" INDICATES FEW OR NO CLOUDS BELOW 12,000 FEET WITH NO
SIGNIFICANT WEATHER AND/OR OBSTRUCTIONS TO VISIBILITY.

WIZ001-002-006>008-014>016-023>028-222200-
NORTHWEST WISCONSIN

CITY           SKY/WX    TMP DP  RH WIND       PRES   REMARKS
SUPERIOR ARPT  NOT AVBL
ASHLAND        CLOUDY    56  47  71 SW13      29.80R
HAYWARD        CLOUDY    55  42  61 VRB6      29.81S
SIREN          PTSUNNY   59  42  52 W7        29.81F
CUMBERLAND     CLOUDY    57  41  54 W13G18    29.82S
RICE LAKE      PTSUNNY   60  42  52 W12       29.83S
CHETEK         CLOUDY    61  44  53 NW8G21    29.82S
LADYSMITH      PTSUNNY   58  44  57 W12       29.83S
EAU CLAIRE     MOSUNNY   66  43  43 W9        29.80F
MENOMONIE      MOSUNNY   66  44  45 W10       29.81S
NEW RICHMOND   MOSUNNY   63  42  46 NW9       29.82F
OSCEOLA        MOSUNNY   62  44  51 W8        29.85S
$$

WIZ003>005-009-010-017-018-222200-
NORTH CENTRAL WISCONSIN

CITY           SKY/WX    TMP DP  RH WIND       PRES   REMARKS
MANITOWISH WTR CLOUDY    53  42  66 W10G21    29.80R
ARBOR VITAE    PTSUNNY   55  45  67 W8G16     29.80S
WOODRUFF       PTSUNNY   55  45  67 W8G16     29.80S
RHINELANDER    LGT RAIN  54  42  64 W15G26    29.81R
EAGLE RIVER    CLOUDY    53  40  60 W14G22    29.80R
LAND O LAKES   RAIN      49  42  76 SW6G21    29.81R
PHILLIPS       CLOUDY    55  41  59 W6        29.80S
TOMAHAWK       CLOUDY    58  43  57 W10G16    29.81S
MEDFORD        CLOUDY    58  43  56 W10G18    29.81R
MERRILL        CLOUDY    59  42  54 W16G23    29.80S
$$

WIZ029-030-035-036-043>047-222200-
CENTRAL WISCONSIN

CITY           SKY/WX    TMP DP  RH WIND       PRES   REMARKS
WAUSAU         PTSUNNY   63  42  46 W15G24    29.78F
MOSINEE        NOT AVBL
MARSHFIELD     MOSUNNY   66  43  43 W12G22    29.80S
STEVENS POINT  PTSUNNY   65  42  43 W9G20     29.81S
WAUPACA        PTSUNNY   70  39  32 SW15G23   29.80S
WAUTOMA        MOSUNNY   70  46  42 SW15G22   29.81F
WISC RAPIDS    MOSUNNY   69  44  40 W12       29.81F
CAMP DOUGLAS   PTSUNNY   68  46  45 SW14      29.82S
$$

WIZ011>013-019>022-031-037>040-048>050-222200-
NORTHEAST WISCONSIN

CITY           SKY/WX    TMP DP  RH WIND       PRES   REMARKS
ANTIGO         CLOUDY    58  44  59 W17       29.80S
SHAWANO        PTSUNNY   68  43  40 W9G16     29.79F
OCONTO         CLOUDY    65  42  43 SW8       29.79F
STURGEON BAY   PTSUNNY   67  46  47 S14G20    29.81F
GREEN BAY      PTSUNNY   68  49  50 SW9G20    29.80F
MANITOWOC      PTSUNNY   69  43  38 SW17G28   29.82F
APPLETON       PTSUNNY   66  43  42 SW14G23   29.80F
CLINTONVILLE   PTSUNNY   68  39  34 W13G23    29.79F
OSHKOSH        MOSUNNY   65  45  48 SW13G18   29.82F
$$

WIZ032>034-041-042-053>061-222200-
SOUTHWEST WISCONSIN

CITY           SKY/WX    TMP DP  RH WIND       PRES   REMARKS
LA CROSSE      PTSUNNY   72  49  44 S13       29.81S
SPARTA         PTSUNNY   67  47  48 W6        29.83S
VIROQUA        MOSUNNY   67  51  54 SW10      29.85S
BOSCOBEL       CLOUDY    70  53  54 W8        29.85F
PRAIRIE DU CHI CLOUDY    68  51  54 S6        29.84F
PLATTEVILLE    PTSUNNY   67  57  69 S9        29.87F
$$

WIZ056-057-062-063-064-067-068-222200-
SOUTH CENTRAL WISCONSIN

CITY           SKY/WX    TMP DP  RH WIND       PRES   REMARKS
REEDSBURG      CLOUDY    64  49  59 SW14G20   29.85S
BARABOO/DELLS  CLOUDY    64  48  54 SW16      29.85F
LONE ROCK      CLOUDY    66  51  58 SW12G18   29.85F
MINERAL POINT  PTSUNNY   64  54  68 SW9       29.87S
MADISON        CLOUDY    63  51  65 S7        29.86F
MIDDLETON      CLOUDY    65  51  60 SW10G18   29.87F
WATERTOWN      CLOUDY    60  53  80 S6        29.88F
MONROE         PTSUNNY   66  52  59 S12G21    29.86F
JANESVILLE     PTSUNNY   68  52  56 S7        29.88F
$$

WIZ051-052-058>065-066-070>072-222200-
SOUTHEAST WISCONSIN

CITY           SKY/WX    TMP DP  RH WIND       PRES   REMARKS
MILWAUKEE      CLOUDY    65  48  54 W8        29.90F
WAUKESHA       NOT AVBL
MILWAUKEE/TIMM CLOUDY    63  46  55 SW6       29.90F
RACINE         CLOUDY    66  47  50 SW5       29.91F
KENOSHA        CLOUDY    67  49  52 W6        29.90F
FOND DU LAC    SUNNY     66  48  52 SW14G24   29.85S
SHEBOYGAN      SUNNY     67  51  56 SW22G32   29.85S
WEST BEND      CLOUDY    59  52  77 SW9       29.88F
JUNEAU         PTSUNNY   60  51  73 S10G16    29.89F
$$

LSZ147-162-222200-
LAKE SUPERIOR

STATION/POSITION TIME  TEMP    WIND        PRES    WAVE
                       AIR SEA DIR/SP/G            HT/PER
                 (UTC) (F)     (DEG/KT/KT) (MB)    (FT/S)
W MID LAKE BUOY  2050   42 37  250/ 12/ 14 1008.4R   2/ 4
DEVILS ISLAND    2100   45     240/ 14/ 16 1008.9R
SAXON HARBOR     2030   54     250/  7/ 10 1009.1R
$$

LMZ867-665-643>646-222200-
LAKE MICHIGAN

STATION/POSITION TIME  TEMP    WIND        PRES    WAVE
                       AIR SEA DIR/SP/G            HT/PER
                 (UTC) (F)     (DEG/KT/KT) (MB)    (FT/S)
CHAMBERS ISLAND  2040   61     170/  7/ 15 1008.8F
N MID LAKE BUOY  2050   43 39  180/ 17/ 19 1011.1F   3/ 5
NORTHPORT PIER   2040   54     160/ 10/ 15 1009.5F
KEWAUNEE LAKESHO 2048          170/ 14/ 16 1010.1F
SHEBOYGAN LAKESH 2100   64     230/ 19/ 24 1010.6R
PORT WASHINGTON  2030   61     230/  7/ 11 1012.9F
ATWATER BUOY     2009   59     240/  8/ 12 1012.9R
MILWAUKEE LAKESH 2050   62     260/  9/ 11   N/A
S MID LAKE BUOY  2050   51 45  170/ 12/ 12 1013.6F   1/ 3
KENOSHA   LAKESH 2100   68     260/  8/  9 1012.2
$$

TC  - TEMPERATURE IN CELSIUS
VSB - VISIBILITY IN STATUTE MILES
WCI - WIND CHILL INDEX
HX  - HEAT INDEX




USA.gov is the U.S. government's official web portal to all federal, state and local government web resources and services.